Location: Bavegemberg
(50.9500°N, 3.8833°E)
Time: 10:28:36
(UTC+00:00)

Transit 2A - Pass Details

Date: 20 September 2025
Orbit: 589 x 955 km, 66.7° (Epoch: 14 December)

Event Time Altitude Azimuth Distance (km) Brightness Sun altitude
Rises 11:24:52 0° 307° (NW) 3,414 9.1 39.9°
Reaches altitude 10° 11:29:18 10° 275° (W) 2,557 8.7 39.9°
Maximum altitude 11:31:01 11° 258° (WSW) 2,489 8.9 39.9°
Drops below altitude 10° 11:32:45 10° 241° (WSW) 2,605 9.2 39.9°
Sets 11:37:26 0° 210° (SSW) 3,594 10.2 39.9°
